FW3278 Weather Reports


Display with metric or nautical units.
time (UTC)temp
F
wind
direction
speed
MPH
gust
MPH
rain 1hr
in
rain 24hr
in
rain mn
in
humidity
%
barometer
mb
20260906132723 53 0 0.0 3.0 0.00 0.19 0.18 87 1023.1
20260906131802 53 0 0.0 2.0 0.00 0.19 0.18 87 1023.1
20260906130902 53 310 0.0 2.0 0.00 0.19 0.18 87 1023.1
20260906130002 54 310 1.0 3.0 0.00 0.19 0.18 88 1023.2
20260906125403 54 310 0.0 3.0 0.00 0.19 0.18 88 1023.2
20260906124502 54 0 0.0 2.0 0.00 0.19 0.18 87 1023.3
20260906123623 54 0 0.0 3.0 0.00 0.19 0.18 87 1023.3
20260906122702 54 302 1.0 2.0 0.00 0.19 0.18 87 1023.3
20260906121802 54 291 1.0 6.0 0.00 0.19 0.18 87 1023.3
20260906120902 54 299 1.0 4.0 0.00 0.19 0.18 87 1023.4
20260906120002 54 301 1.0 3.0 0.00 0.19 0.18 86 1023.4
20260906115423 54 301 1.0 3.0 0.00 0.19 0.18 87 1023.4
20260906114502 54 299 1.0 5.0 0.00 0.19 0.18 86 1023.5
20260906113603 54 297 1.0 3.0 0.00 0.19 0.18 86 1023.4
20260906112702 54 292 1.0 3.0 0.00 0.19 0.18 86 1023.4
20260906111824 54 288 1.0 5.0 0.00 0.19 0.18 86 1023.4
20260906110902 54 280 1.0 5.0 0.00 0.19 0.18 85 1023.3
20260906110002 54 282 1.0 4.0 0.00 0.19 0.18 85 1023.4
20260906105402 54 259 1.0 3.0 0.00 0.19 0.18 85 1023.3
20260906104502 54 259 1.0 4.0 0.00 0.19 0.18 85 1023.1
20260906103602 55 259 1.0 4.0 0.00 0.19 0.18 84 1023.0
20260906102702 55 259 1.0 3.0 0.00 0.19 0.18 85 1022.9
20260906101802 55 259 1.0 3.0 0.00 0.19 0.18 84 1022.9
20260906095404 55 0 0.0 3.0 0.00 0.19 0.18 83 1022.9
20260906094504 55 0 0.0 2.0 0.00 0.19 0.18 83 1022.8
20260906093604 55 259 0.0 1.0 0.00 0.19 0.18 82 1022.7
20260906092704 55 259 1.0 2.0 0.00 0.19 0.18 82 1022.7
20260906091804 55 259 1.0 2.0 0.00 0.19 0.18 82 1022.5
20260906090925 55 259 1.0 3.0 0.00 0.19 0.18 81 1022.5
20260906090004 55 259 1.0 4.0 0.00 0.19 0.18 81 1022.3
20260906085404 55 259 0.0 4.0 0.00 0.19 0.18 82 1022.2
20260906084504 56 0 0.0 0.0 0.00 0.19 0.18 81 1022.1
20260906083625 56 0 0.0 1.0 0.00 0.19 0.18 81 1022.1
20260906082705 56 0 0.0 3.0 0.00 0.19 0.18 80 1022.1
20260906081804 56 0 0.0 2.0 0.00 0.20 0.18 79 1022.1
20260906080904 56 0 0.0 2.0 0.00 0.20 0.18 79 1022.0
20260906080004 56 264 0.0 3.0 0.00 0.21 0.18 79 1021.9
20260906075404 56 270 1.0 2.0 0.00 0.21 0.18 78 1021.8
20260906074504 57 272 1.0 4.0 0.00 0.22 0.18 78 1021.8
20260906073604 57 260 0.0 8.0 0.00 0.22 0.18 77 1021.7
20260906072704 57 260 0.0 3.0 0.00 0.22 0.18 75 1021.7
20260906071804 58 158 0.0 6.0 0.00 0.23 0.18 74 1021.6
20260906070904 58 199 1.0 4.0 0.00 0.30 0.18 73 1021.3
20260906070004 59 236 1.0 4.0 0.00 0.41 0.18 72 1021.2
20260906065404 59 292 1.0 2.0 0.00 0.41 0.18 72 1021.3
20260906064525 59 262 1.0 4.0 0.00 0.41 0.18 72 1021.2
20260906063604 59 242 1.0 4.0 0.00 0.41 0.18 72 1021.2
20260906062704 60 268 1.0 7.0 0.00 0.41 0.18 70 1021.3
20260906061825 60 279 2.0 9.0 0.00 0.41 0.18 68 1021.2
20260906060925 61 169 2.0 8.0 0.00 0.41 0.18 66 1021.2
20260906060004 62 157 2.0 5.0 0.00 0.41 0.18 67 1021.1
20260906055404 62 157 3.0 6.0 0.00 0.41 0.18 67 1021.1
20260906054504 62 157 3.0 10.0 0.00 0.41 0.18 66 1020.9
20260906053625 62 170 3.0 9.0 0.00 0.41 0.18 67 1020.8
20260906052725 62 160 2.0 8.0 0.00 0.41 0.18 69 1020.8
20260906051804 61 157 1.0 5.0 0.00 0.41 0.18 70 1020.8
20260906050904 61 157 1.0 4.0 0.00 0.41 0.18 69 1020.8
20260906050025 61 157 2.0 5.0 0.00 0.41 0.18 66 1020.7
20260906045404 62 162 1.0 8.0 0.00 0.41 0.18 65 1020.7
20260906044504 62 157 1.0 8.0 0.00 0.41 0.18 68 1020.5
20260906043604 62 157 2.0 4.0 0.00 0.41 0.18 66 1020.5
20260906042704 62 219 1.0 4.0 0.00 0.41 0.18 67 1020.5
20260906041804 63 312 2.0 4.0 0.00 0.41 0.18 66 1020.4
20260906040904 63 164 3.0 5.0 0.00 0.41 0.18 63 1020.4
20260906040004 64 168 3.0 8.0 0.00 0.41 0.18 62 1020.4
20260906035405 64 158 3.0 8.0 0.00 0.41 0.18 65 1020.3
20260906034504 63 219 4.0 8.0 0.01 0.41 0.18 67 1020.4
20260906033604 62 299 4.0 9.0 0.01 0.41 0.18 69 1020.4
20260906032704 62 271 3.0 10.0 0.01 0.41 0.18 70 1020.4
20260906031804 60 174 2.0 9.0 0.01 0.41 0.18 75 1020.5
20260906030904 59 241 2.0 6.0 0.01 0.41 0.18 77 1020.7
20260906030004 59 249 2.0 5.0 0.01 0.41 0.18 76 1020.7
20260906025404 59 265 2.0 5.0 0.01 0.41 0.18 77 1020.7
20260906024504 59 274 3.0 6.0 0.00 0.42 0.17 78 1020.6
20260906023604 58 292 2.0 10.0 0.00 0.44 0.17 80 1020.8
20260906022704 58 275 2.0 9.0 0.00 0.44 0.17 82 1020.9
20260906021804 57 296 2.0 9.0 0.00 0.44 0.17 84 1021.0
20260906020904 57 281 2.0 4.0 0.00 0.44 0.17 84 1021.0
20260906020004 58 273 2.0 7.0 0.00 0.44 0.17 87 1021.1
20260906015404 57 264 2.0 7.0 0.00 0.44 0.17 88 1021.0
20260906014504 57 295 2.0 6.0 0.00 0.44 0.17 90 1021.1
20260906013626 56 301 2.0 6.0 0.00 0.44 0.17 92 1021.1
20260906012725 56 268 2.0 7.0 0.00 0.44 0.17 92 1021.1
20260906011803 56 248 2.0 5.0 0.00 0.44 0.17 93 1021.1
20260906010925 56 280 3.0 9.0 0.00 0.44 0.17 94 1021.1
20260906010025 56 279 3.0 9.0 0.00 0.44 0.17 95 1021.1
20260906005404 55 290 3.0 8.0 0.00 0.44 0.17 95 1021.1
20260906004525 54 285 2.0 10.0 0.00 0.44 0.17 95 1021.2
20260906003625 54 263 2.0 5.0 0.00 0.44 0.17 96 1021.1
20260906002703 54 275 2.0 8.0 0.00 0.44 0.17 96 1021.1
20260906001804 54 287 3.0 9.0 0.00 0.44 0.17 96 1021.0
20260906000903 54 281 3.0 9.0 0.00 0.44 0.17 96 1020.9
20260906000024 54 293 2.0 8.0 0.00 0.44 0.17 96 1020.9
20260905235404 54 242 2.0 5.0 0.00 0.44 0.17 96 1020.8
20260905234525 53 283 1.0 8.0 0.00 0.44 0.17 96 1020.8
20260905233604 53 264 1.0 4.0 0.00 0.44 0.17 96 1020.9
20260905232704 52 266 1.0 3.0 0.00 0.44 0.17 96 1020.7
20260905231804 52 258 2.0 5.0 0.00 0.44 0.17 95 1020.6
20260905230925 53 248 2.0 4.0 0.00 0.44 0.17 96 1020.3
20260905230004 52 291 2.0 7.0 0.00 0.44 0.17 96 1020.2
20260905225404 52 290 2.0 7.0 0.00 0.44 0.17 96 1020.1
20260905224504 52 282 1.0 4.0 0.01 0.44 0.17 96 1020.0
20260905223604 52 280 1.0 4.0 0.01 0.44 0.17 96 1019.9
20260905222704 52 250 1.0 5.0 0.01 0.44 0.17 96 1019.8
20260905221804 52 278 1.0 5.0 0.01 0.44 0.17 95 1019.7
20260905220923 52 249 1.0 4.0 0.01 0.44 0.17 95 1019.5
20260905220023 52 309 1.0 5.0 0.01 0.44 0.17 95 1019.3
20260905215402 51 269 2.0 3.0 0.01 0.44 0.17 95 1019.3
20260905214523 51 267 2.0 6.0 0.01 0.44 0.16 95 1019.2
20260905213602 51 282 2.0 8.0 0.01 0.45 0.16 95 1019.0
20260905212702 51 303 1.0 8.0 0.01 0.46 0.16 95 1018.7
20260905211802 51 284 1.0 3.0 0.03 0.47 0.16 95 1018.7
20260905210902 51 282 2.0 5.0 0.03 0.48 0.16 95 1018.5
20260905210002 51 282 2.0 10.0 0.04 0.49 0.16 95 1018.4
20260905205423 51 280 2.0 10.0 0.04 0.50 0.16 95 1018.2
20260905204502 51 287 2.0 7.0 0.03 0.51 0.15 95 1018.0
20260905203602 51 279 2.0 7.0 0.04 0.53 0.15 95 1018.0
20260905202702 51 264 2.0 7.0 0.04 0.53 0.15 95 1017.9
20260905201802 51 274 2.0 4.0 0.03 0.52 0.13 95 1017.7
20260905200902 51 277 2.0 8.0 0.04 0.52 0.13 95 1017.5
20260905200002 51 280 2.0 7.0 0.03 0.51 0.12 95 1017.4
20260905195402 51 271 2.0 7.0 0.04 0.51 0.12 95 1017.4
20260905194502 51 273 3.0 8.0 0.04 0.51 0.12 95 1017.2
20260905193602 51 285 2.0 9.0 0.04 0.50 0.11 95 1017.2
20260905192702 51 273 3.0 8.0 0.04 0.51 0.11 95 1017.3
20260905191802 51 278 2.0 10.0 0.03 0.52 0.10 95 1017.1
20260905190903 51 287 2.0 10.0 0.02 0.53 0.09 95 1017.1
20260905190002 51 279 2.0 6.0 0.02 0.54 0.09 95 1016.8
20260905185402 51 296 2.0 10.0 0.02 0.53 0.08 95 1016.6
20260905184502 51 267 3.0 10.0 0.02 0.53 0.08 95 1016.5
20260905183623 51 269 4.0 15.0 0.01 0.54 0.07 95 1016.4
20260905182702 51 274 4.0 11.0 0.02 0.60 0.07 95 1016.3
20260905181823 51 273 3.0 11.0 0.02 0.62 0.07 95 1016.2
20260905180923 51 273 3.0 8.0 0.02 0.62 0.07 95 1015.8
20260905180002 51 279 3.0 8.0 0.02 0.62 0.07 95 1015.6
20260905175402 51 277 3.0 11.0 0.01 0.61 0.06 94 1015.5
20260905174523 51 278 4.0 11.0 0.02 0.61 0.06 94 1015.3
20260905173602 51 285 5.0 14.0 0.02 0.61 0.06 94 1015.1
20260905172702 51 275 4.0 12.0 0.01 0.60 0.05 94 1015.0
20260905171802 51 273 3.0 10.0 0.01 0.61 0.05 94 1014.8
20260905170902 51 272 3.0 9.0 0.01 0.61 0.05 94 1014.4
20260905170002 51 272 3.0 10.0 0.01 0.61 0.05 94 1014.4
20260905165402 51 275 5.0 10.0 0.01 0.61 0.05 94 1014.4
20260905164502 51 274 4.0 16.0 0.00 0.61 0.04 94 1014.2
20260905163602 51 266 4.0 13.0 0.00 0.62 0.04 94 1014.1
20260905162723 51 274 5.0 13.0 0.00 0.65 0.04 94 1013.9
20260905161802 51 280 5.0 17.0 0.00 0.67 0.04 94 1013.9
20260905160902 51 268 5.0 17.0 0.00 0.68 0.04 94 1013.9
20260905160002 51 280 5.0 10.0 0.00 0.70 0.04 94 1013.8
20260905155402 51 278 5.0 13.0 0.01 0.71 0.04 94 1013.7
20260905154502 51 271 5.0 13.0 0.01 0.72 0.04 94 1013.6
20260905153602 51 281 4.0 13.0 0.02 0.72 0.04 93 1013.5
20260905152723 51 281 4.0 13.0 0.02 0.73 0.04 93 1013.3
20260905151802 51 282 4.0 13.0 0.03 0.74 0.04 93 1013.0
20260905150923 51 279 6.0 15.0 0.03 0.75 0.04 93 1012.7
20260905150023 51 274 5.0 15.0 0.04 0.75 0.04 93 1012.6
20260905145402 51 269 6.0 14.0 0.03 0.74 0.03 93 1012.5
20260905144523 51 274 6.0 19.0 0.04 0.74 0.03 93 1012.1
20260905143602 51 283 6.0 15.0 0.03 0.75 0.02 93 1011.9
20260905142702 51 289 6.0 15.0 0.03 0.76 0.02 93 1011.8
20260905141802 51 283 5.0 17.0 0.02 0.77 0.01 92 1011.7
20260905140902 51 300 5.0 16.0 0.02 0.78 0.01 92 1011.5
20260905140004 51 294 5.0 17.0 0.01 0.78 0.00 92 1011.2
20260905135423 51 287 5.0 15.0 0.01 0.78 0.78 91 1011.2
20260905134502 51 290 5.0 15.0 0.00 0.77 0.77 91 1010.9
20260905133623 51 291 5.0 14.0 0.00 0.77 0.77 91 1010.8